Location: Vihti�l�
(61.3833°N, 23.0667°E)
Time: 20:56:29
(UTC+00:00)

COSMOS 2455 - Visible Passes

Search period start: 13 April 2021 00:00
Search period end: 23 April 2021 00:00
Orbit: 902 x 908 km, 67.1° (Epoch: 13 April)

Date Brightness Start Highest point End Pass type
(mag) Time Alt. Az. Time Alt. Az. Time Alt. Az.
13 Apr 3.1 00:25:20 15° WSW 00:30:23 69° NNW 00:36:26 10° ENE visible
13 Apr 3.7 02:11:12 10° WNW 02:17:05 50° N 02:22:58 10° ENE visible
13 Apr 4.1 21:02:34 21° ESE 21:03:25 21° ESE 21:07:47 10° ENE visible
13 Apr 2.9 22:45:40 33° SSW 22:48:24 63° SE 22:54:22 10° NE visible
14 Apr 3.2 00:28:46 11° WSW 00:34:30 63° NNW 00:40:31 10° ENE visible
14 Apr 3.7 02:15:23 10° WNW 02:21:16 50° N 02:27:08 10° ENE visible
14 Apr 3.9 21:05:57 24° SE 21:07:12 26° ESE 21:12:03 10° ENE visible
14 Apr 2.8 22:49:02 28° SW 22:52:23 74° SE 22:58:25 10° NE visible
15 Apr 3.4 00:32:40 10° W 00:38:38 58° NNW 00:44:36 10° ENE visible
15 Apr 3.7 21:09:13 26° SSE 21:11:01 31° ESE 21:16:13 10° ENE visible
15 Apr 2.8 22:52:18 22° SW 22:56:23 84° SE 23:02:27 10° NE visible
16 Apr 3.5 00:36:51 10° W 00:42:47 55° NNW 00:48:43 10° ENE visible
16 Apr 4.7 19:29:34 10° ESE 19:30:32 10° E 19:31:30 10° E visible
16 Apr 3.4 21:12:24 26° SSE 21:14:52 37° ESE 21:20:21 10° NE visible
16 Apr 2.9 22:55:28 16° SW 23:00:26 86° NW 23:06:31 10° NE visible
17 Apr 3.6 00:41:02 10° W 00:46:57 52° N 00:52:51 10° ENE visible
17 Apr 4.5 19:32:21 12° ESE 19:34:11 14° ESE 19:36:58 10° ENE visible
17 Apr 3.2 21:15:25 23° S 21:18:45 45° SE 21:24:26 10° NE visible
17 Apr 3.0 22:58:29 10° WSW 23:04:30 77° NNW 23:10:34 10° NE visible
18 Apr 3.7 00:45:14 10° W 00:51:07 51° N 00:57:00 10° ENE visible
18 Apr 4.3 19:35:12 13° SE 19:37:53 17° ESE 19:41:36 10° ENE visible
18 Apr 3.0 21:18:15 18° SSW 21:22:40 53° SE 21:28:31 10° NE visible
18 Apr 3.1 23:02:33 10° WSW 23:08:35 69° NNW 23:14:38 10° ENE visible
19 Apr 3.8 00:49:24 10° WNW 00:55:17 50° N 01:01:10 10° ENE visible
19 Apr 4.1 19:37:45 12° SSE 19:41:38 21° ESE 19:45:59 10° ENE visible
19 Apr 2.8 21:20:46 10° SSW 21:26:36 63° SE 21:32:34 10° NE visible
19 Apr 3.3 23:06:42 10° WSW 23:12:42 63° NNW 23:18:42 10° ENE visible
20 Apr 3.8 00:53:35 10° WNW 00:59:28 50° N 01:05:20 10° ENE visible
20 Apr 3.8 19:40:36 10° SSE 19:45:24 26° ESE 19:50:14 10° ENE visible
20 Apr 2.8 21:24:35 10° SW 21:30:35 73° SE 21:36:37 10° NE visible
20 Apr 3.5 23:10:52 10° W 23:16:50 58° NNW 23:22:48 10° ENE visible
21 Apr 3.8 00:57:44 10° WNW 01:03:38 51° N 01:09:31 10° E visible
21 Apr 3.6 19:44:03 10° S 19:49:13 31° ESE 19:54:25 10° ENE visible
21 Apr 2.8 21:28:33 10° SW 21:34:36 84° SE 21:40:40 10° NE visible
21 Apr 3.6 23:15:03 10° W 23:20:59 55° NNW 23:26:55 10° ENE visible
22 Apr 3.8 01:01:54 10° WNW 01:07:48 52° N 01:13:42 10° E visible
22 Apr 3.4 19:47:37 10° S 19:53:04 37° ESE 19:58:32 10° NE visible
22 Apr 2.9 21:32:34 10° SW 21:38:38 86° NW 21:44:42 10° NE visible
22 Apr 3.7 23:19:13 10° W 23:25:08 52° N 23:31:03 10° ENE visible
